Retour au catalogue

CZ-6A DEB

ActifSSO
NORAD 54978·DEBRIS·🇨🇳 China

Lancé Nov 11, 2022 depuis Taiyuan Satellite Launch Center

Loading…

Prochains Passages (prochaines 24 heures)

TLE

FraisSource: Space-Track

Époque: Sep 14, 2026, 11:23 UTC

1 54978U 22151TT  26257.47452545  .00001454  00000-0  72667-3 0  9997
2 54978  98.8333 265.3909 0043549  65.4429 295.1276 14.17844007197340

Suivez CZ-6A DEB en temps réel avec AllMySat

Download on the App Store